COSMOS 2251 DEB, 35959

Orbit data source: Space-Track

COSMOS 2251 DEB, 35959 is space debris in LEO originally from a launch on Wed, 16 Jun 1993 UTC launched from the Plesetsk Missile And Space Complex (PKMTR). The debris from Iridium 33, an American commercial communications satellite, has been tracked extensively since its accidental collision with the defunct Russian satellite Cosmos 2251 in 2009. This event, occurring at high speed in low Earth orbit (LEO), generated thousands of pieces of space debris, significantly increasing the risk of further collisions. The Iridium 33 debris cloud has impacted space traffic management and orbital debris mitigation strategies, making it a subject of ongoing study in space situational awareness.

Loading next visibility...
Identifier
35959, 1993-036AUZ
Orbit
LEO
Country
Flag of CISCIS
Related business
Manufacturer
Unknown
Mission
Spacecraft
Bus & Motor
Unknown
Mass
Unknown
Launch date (UTC)
1993-06-16 (33 years ago)
Launch vehicle
Unknown
Launch site
Plesetsk Missile And Space Complex (PKMTR)
Object type
Payload
Rocket body
Debris
Shape & HBR
Unknown shape, 0.1 m
Radar Cross Section
Small (<0.1 m²)

Expand to show TLE details & history
Last TLE update: 23 hours ago

TLE from 23 hours ago
0 COSMOS 2251 DEB
1 35959U 93036AUZ 26167.50232055  .00000172  00000-0  70539-4 0  9994
2 35959  74.0327 331.9633 0022244   8.5690 351.5837 14.34256671875917
Epoch: 2026-06-16T12:03Z
TLE epoch observation values (Epoch: 2026-06-16T12:03:20.495Z)
Latitude
-0.00002°
Longitude
-113.64554°
Altitude
764.399 km
Speed
7.48 km/s
True Right ascension
22h 07m 51s
True Declination
0° 00' 00"
Sunlit
Object was in daylight at epoch
Visualization orbit readout
Latitude
Unknown
Longitude
Unknown
Altitude
Unknown
Speed
Unknown
Apparent Right ascension
Unknown
Apparent Declination
Unknown
Sunlit
N/A
Visualization observer readout
Local Sidereal Time
21:18:50
Azimuth
Unknown
Elevation
Unknown
Doppler factor
Unknown
Orbital elements
Apogee altitude
791.076 km
Perigee altitude
759.252 km
Semi-major axis
7,153.301 km
Eccentricity
0.00222
Inclination
74.0327°
RAAN
331.9633°
Arg. of periapsis
8.569°
True anomaly
351.54629°
Mean anomaly
351.5837°
Eccentric anomaly
351.565°
Mean motion
3.58743 °/min
Orbital period
100.35 mins
BSTAR
0.000070539
Loading maneuver chart data...
Computing Atmospheric mass density...

Documentation

Showing up to 5 results
|